Погода в Лёйгаватне

Исландия     64°12′54″N   20°43′56″W
темп.,
°C
ветер,
м/с
пор.,
м/с
влажн.,
%
обл.,
%
осадки,
мм/ч
давл.,
гПа
погр.,
м
21 апреля, ср
ср2100:00−2всв1184100 0.0 102317
03:00−3всв2286100 0.0 102335
06:00−2всв1193100 0.1 102290
09:00−1в1194100 0.1 1022112
12:000юв1195100 0.3 1021152
15:00+3ююз2492100 0.1 1020410
18:00+3ю3592100 0.3 1020181
21:00+2вюв2193100 0.3 102012
22 апреля, чт
чт2200:00+1всв2296100 0.4 102015
03:00+1всв2298100 0.1 102045
06:00+1всв2297100 0.1 102060
09:00+2всв3390100 0.1 1021123
12:00+3в2380100 0.1 1021270
15:00+5в2372100 0.0 1021381
18:00+4всв3480100 0.0 1021105
21:00+3всв3392100 0.4 102274
23 апреля, пт
пт2300:00+3всв3392100 0.6 102251
03:00+3всв3395100 0.3 102254
06:00+2всв2294100 0.8 102241
09:00+3всв2291100 0.0 102371
12:00+3всв2292100 0.0 102364
15:00+3всв2295100 1.1 102452
18:00+4всв2294100 1.2 102448
21:00+4всв2295100 0.1 102526
24 апреля, сб
сб2400:00+3в2298100 2.1 102533
03:00+3всв2297100 1.3 102527
06:00+3всв2296100 1.4 102522
09:00+4в2295100 0.0 102634
12:00+5в2394100 0.0 1025153
15:00+7всв3485100 0.1 1024477
18:00+6всв2389100 0.1 1024122
21:00+5св1196100 0.5 102346
25 апреля, вс
вс2500:00+4всв3495100 2.9 1022115
03:00+4св3494100 1.1 1021137
06:00+3св2397100 1.9 1020122
09:00+3св2393100 0.1 1020137
12:00+4ссз1192100 0.3 102089
15:00+7ссз237896 0.1 1020617
18:00+5ссз348791 0.1 1021544
21:00+4ссз3391100 0.0 1023230